User: anonymous
Location: Myra
(43.4160°N, 88.0960°W)
Time: 19:23:33
(UTC-05:00)
Language:

SL-8 R/B - Orbit

View from above orbital plane
View from above orbital plane
View from above satellite
View from above satellite

Ground track
Ground track

The orbit data is extracted from the following two-line orbital elements,

1 33066U 08031G   14213.33113448  .00000142  00000-0  57026-4 0  8460
2 33066 048.4445 343.9030 0007554 352.6713 038.3050 14.68835635328235
Epoch (UTC): 01 August 2014 07:56:50
Eccentricity: 0.0007554
inclination: 48.4445°
perigee height: 659 km
apogee height: 670 km
right ascension of ascending node: 343.9030°
argument of perigee: 352.6713°
revolutions per day: 14.68835635
mean anomaly at epoch: 38.3050°
orbit number at epoch: 32823

The dashed part of the orbit path shows where the satellite is in the earth's shadow,  

DLR